Погода в Чёрной Холунице

Россия / Кировская область     58°51′00″N   51°42′45″E
темп.,
°C
ветер,
м/с
пор.,
м/с
влажн.,
%
обл.,
%
осадки,
мм/ч
давл.,
гПа
погр.,
м
28 февраля, вс
вс2800:00−20св359945 0.0 1009110
03:00−22св369834 0.0 1010109
06:00−24св369854 0.0 1011132
09:00−21св369636 0.0 1012260
12:00−16ссв359377 0.0 1012412
15:00−15ссв369289 0.1 1013508
18:00−19св2398100 0.0 101557
21:00−22ссв229754 0.0 101720
1 марта, пн
пн100:00−22ссв23990 0.0 101823
03:00−23ссв22990 0.0 102020
06:00−24ссв121000 0.0 102020
09:00−17ююз11940 0.0 1020129
12:00−12юз249272 0.0 1018395
15:00−12ююз369377 0.0 1016391
18:00−14ююз4109594 0.0 1013318
21:00−14ююз5129597 0.1 1010348
2 марта, вт
вт200:00−13ююз51394100 0.5 1005440
03:00−11ююз61294100 1.3 1002497
06:00−10ююз51294100 0.9 998495
09:00−7ю51094100 1.7 996404
12:00−4ю4796100 0.6 995396
15:00−2ю2396100 0.9 995241
18:00−5ююз1297100 0.3 99533
21:00−7сз129596 0.5 99621
3 марта, ср
ср300:00−6зюз2497100 0.2 99694
03:00−5зсз389698 0.6 997361
06:00−9зсз31096100 0.1 997360
09:00−7сз4993100 0.4 999662
12:00−6сз5989100 0.2 1000833
15:00−5сз4888100 0.4 1001941
18:00−10зсз239490 0.1 100163
21:00−8зсз399590 0.3 1002411
4 марта, чт
чт400:00−10з279695 0.3 1001220
03:00−12зюз259894 0.4 1001132
06:00−13ююз259895 0.1 1000102
09:00−9ююз379696 0.1 998335
12:00−6ю5994100 0.1 994590
15:00−5ю51195100 1.1 990770
18:00−6ю61394100 1.7 985851
21:00−2ююз51296100 5.1 982991